Location: Équennes
(49.7375°N, 1.9622°E)
Time: 23:51:20
(UTC+00:00)

Cosmos 1656 - Pass Details

Date: 08 October 2023
Orbit: 797 x 849 km, 71.1° (Epoch: 03 December)

Event Time Altitude Azimuth Distance (km) Brightness Sun altitude
Rises 20:58:23 0° 333° (NNW) 3,321 7.6 -34.8°
Reaches altitude 10° 21:00:51 10° 337° (NNW) 2,391 6.7 -35.1°
Enters shadow 21:03:29 28° 349° (N) 1,468 5.2 -35.4°
